Погода в Кулеберьеве

Россия / Ивановская область     56°58′34″N   40°30′48″E
темп.,
°C
ветер,
м/с
пор.,
м/с
влажн.,
%
обл.,
%
осадки,
мм/ч
давл.,
гПа
погр.,
м
17 апреля, сб
сб1700:00+7всв5127876 0.0 1026463
03:00+5всв5128376 0.0 1026382
06:00+4всв4138036 0.0 1026386
09:00+8в59617 0.0 1026547
12:00+12в68495 0.0 1026939
15:00+13всв68415 0.0 10251053
18:00+11всв59450 0.0 1025904
21:00+7всв412620 0.0 1026498
18 апреля, вс
вс1800:00+5всв413750 0.0 1025470
03:00+4всв412830 0.0 1026412
06:00+3всв413820 0.0 1026458
09:00+8в610595 0.0 1025923
12:00+12в68435 0.0 10251498
15:00+13в68395 0.0 10251892
18:00+11всв584745 0.0 10251473
21:00+6всв6127971 0.0 1027613
19 апреля, пн
пн1900:00+4в5128139 0.0 1028536
03:00+3всв4118012 0.0 1028466
06:00+2всв5117181 0.0 1029508
09:00+4в5959100 0.0 1029686
12:00+7в6851100 0.0 10291125
15:00+9в684684 0.0 10291568
18:00+7в5944100 0.0 10291343
21:00+5в51246100 0.0 1029745
20 апреля, вт
вт2000:00+3в4115699 0.0 1029571
03:00+2в51258100 0.0 1029607
06:00+1в51362100 0.0 1028587
09:00+5вюв6115583 0.0 1027779
12:00+9вюв71148100 0.0 10251211
15:00+11вюв7124731 0.0 10221408
18:00+9вюв71448100 0.0 10201270
21:00+7вюв81652100 0.0 10181166
21 апреля, ср
ср2100:00+5вюв81980100 1.9 1014921
03:00+4вюв81987100 4.8 10121221
06:00+5вюв81789100 2.4 10091037
09:00+7юв81788100 2.6 10061179
12:00+8юв91987100 0.2 10041559
15:00+8ююв91983100 1.2 10051734
18:00+6ю81688100 0.1 10071286
21:00+6ю71482100 0.1 10101419